Weather reports worldwide

Advertisment
Bonifati, Italy (16337): temperature & dewpoint: 12.01.2020 12:00:00 - 18.01.2020 12:00:00 (CET)Bonifati, Italy (16337): wind speed: 12.01.2020 12:00:00 - 18.01.2020 12:00:00 (CET)Bonifati, Italy (16337): wind direction: 12.01.2020 12:00:00 - 18.01.2020 12:00:00 (CET)Bonifati, Italy (16337): reduced air pressure: 12.01.2020 12:00:00 - 18.01.2020 12:00:00 (CET)Bonifati, Italy (16337): visibility: 12.01.2020 12:00:00 - 18.01.2020 12:00:00 (CET)
Date & Time tt [°C] td [°C] ff [km/h] ff [kn] dd ppp [hPa] vv [km]
18.01.2020 12:00:00 - - - - - - -
18.01.2020 11:00:00 - - - - - - -
18.01.2020 10:00:00 8,4 6,9 13 7 S 1023,8 12
18.01.2020 09:00:00 - - - - - - -
18.01.2020 08:00:00 - - - - - - -
18.01.2020 07:00:00 8,0 4,2 11 6 S 1024,5 15
18.01.2020 06:00:00 - - - - - - -
18.01.2020 05:00:00 - - - - - - -
18.01.2020 04:00:00 - - - - - - -
18.01.2020 03:00:00 - - - - - - -
18.01.2020 02:00:00 - - - - - - -
18.01.2020 01:00:00 - - - - - - -
18.01.2020 00:00:00 - - - - - - -
17.01.2020 23:00:00 - - - - - - -
17.01.2020 22:00:00 - - - - - - -
17.01.2020 21:00:00 - - - - - - -
17.01.2020 20:00:00 - - - - - - -
17.01.2020 19:00:00 7,6 4,0 8 4 NW 1025,4 20
17.01.2020 18:00:00 - - - - - - -
17.01.2020 17:00:00 - - - - - - -
17.01.2020 16:00:00 9,8 2,9 9 5 W 1024,7 20
17.01.2020 15:00:00 - - - - - - -
17.01.2020 14:00:00 - - - - - - -
17.01.2020 13:00:00 10,8 4,9 15 8 W 1025,3 20
17.01.2020 12:00:00 - - - - - - -
17.01.2020 11:00:00 - - - - - - -
17.01.2020 10:00:00 9,0 3,4 4 2 W 1025,9 20
17.01.2020 09:00:00 - - - - - - -
17.01.2020 08:00:00 - - - - - - -
17.01.2020 07:00:00 7,8 4,2 8 4 WSW 1026,2 20
17.01.2020 06:00:00 - - - - - - -
17.01.2020 05:00:00 - - - - - - -
17.01.2020 04:00:00 - - - - - - -
17.01.2020 03:00:00 - - - - - - -
17.01.2020 02:00:00 - - - - - - -
17.01.2020 01:00:00 - - - - - - -
17.01.2020 00:00:00 - - - - - - -
16.01.2020 23:00:00 - - - - - - -
16.01.2020 22:00:00 - - - - - - -
16.01.2020 21:00:00 - - - - - - -
16.01.2020 20:00:00 - - - - - - -
16.01.2020 19:00:00 8,0 3,8 0 0 N 1027,1 20
16.01.2020 18:00:00 - - - - - - -
16.01.2020 17:00:00 - - - - - - -
16.01.2020 16:00:00 10,2 4,6 9 5 W 1026,7 20
16.01.2020 15:00:00 - - - - - - -
16.01.2020 14:00:00 - - - - - - -
16.01.2020 13:00:00 11,2 4,9 9 5 W 1027,1 25
16.01.2020 12:00:00 - - - - - - -
16.01.2020 11:00:00 - - - - - - -
16.01.2020 10:00:00 9,0 4,8 4 2 WSW 1028,2 25
16.01.2020 09:00:00 - - - - - - -
16.01.2020 08:00:00 - - - - - - -
16.01.2020 07:00:00 7,4 5,1 8 4 NNE 1028,4 20
16.01.2020 06:00:00 - - - - - - -
16.01.2020 05:00:00 - - - - - - -
16.01.2020 04:00:00 - - - - - - -
16.01.2020 03:00:00 - - - - - - -
16.01.2020 02:00:00 - - - - - - -
16.01.2020 01:00:00 - - - - - - -
16.01.2020 00:00:00 - - - - - - -
15.01.2020 23:00:00 - - - - - - -
15.01.2020 22:00:00 - - - - - - -
15.01.2020 21:00:00 - - - - - - -
15.01.2020 20:00:00 - - - - - - -
15.01.2020 19:00:00 8,0 4,9 8 4 ENE 1027,7 18
15.01.2020 18:00:00 - - - - - - -
15.01.2020 17:00:00 - - - - - - -
15.01.2020 16:00:00 10,0 6,2 9 5 WNW 1026,9 18
15.01.2020 15:00:00 - - - - - - -
15.01.2020 14:00:00 - - - - - - -
15.01.2020 13:00:00 12,0 3,7 0 0 N 1026,9 18
15.01.2020 12:00:00 - - - - - - -
15.01.2020 11:00:00 - - - - - - -
15.01.2020 10:00:00 9,8 2,7 0 0 N 1027,3 18
15.01.2020 09:00:00 - - - - - - -
15.01.2020 08:00:00 - - - - - - -
15.01.2020 07:00:00 8,0 2,5 11 6 ENE 1026,9 10
15.01.2020 06:00:00 - - - - - - -
15.01.2020 05:00:00 - - - - - - -
15.01.2020 04:00:00 - - - - - - -
15.01.2020 03:00:00 - - - - - - -
15.01.2020 02:00:00 - - - - - - -
15.01.2020 01:00:00 - - - - - - -
15.01.2020 00:00:00 - - - - - - -
14.01.2020 23:00:00 - - - - - - -
14.01.2020 22:00:00 - - - - - - -
14.01.2020 21:00:00 - - - - - - -
14.01.2020 20:00:00 - - - - - - -
14.01.2020 19:00:00 8,4 6,9 8 4 NNW 1025,8 18
14.01.2020 18:00:00 - - - - - - -
14.01.2020 17:00:00 - - - - - - -
14.01.2020 16:00:00 10,0 6,5 8 4 WNW 1024,7 18
14.01.2020 15:00:00 - - - - - - -
14.01.2020 14:00:00 - - - - - - -
14.01.2020 13:00:00 10,8 5,8 11 6 WNW 1024,5 18
14.01.2020 12:00:00 - - - - - - -
14.01.2020 11:00:00 - - - - - - -
14.01.2020 10:00:00 9,8 6,0 5 3 NNE 1024,9 18
14.01.2020 09:00:00 - - - - - - -
14.01.2020 08:00:00 - - - - - - -
14.01.2020 07:00:00 8,0 5,3 8 4 NNW 1025,1 10
14.01.2020 06:00:00 - - - - - - -
14.01.2020 05:00:00 - - - - - - -
14.01.2020 04:00:00 - - - - - - -
14.01.2020 03:00:00 - - - - - - -
14.01.2020 02:00:00 - - - - - - -
14.01.2020 01:00:00 - - - - - - -
14.01.2020 00:00:00 - - - - - - -
13.01.2020 23:00:00 - - - - - - -
13.01.2020 22:00:00 - - - - - - -
13.01.2020 21:00:00 - - - - - - -
13.01.2020 20:00:00 - - - - - - -
13.01.2020 19:00:00 8,4 5,2 21 11 NNE 1023,4 18
13.01.2020 18:00:00 - - - - - - -
13.01.2020 17:00:00 - - - - - - -
13.01.2020 16:00:00 10,4 6,9 16 9 NE 1022,8 18
13.01.2020 15:00:00 - - - - - - -
13.01.2020 14:00:00 - - - - - - -
13.01.2020 13:00:00 10,8 4,7 18 10 W 1023,4 18
13.01.2020 12:00:00 - - - - - - -
13.01.2020 11:00:00 - - - - - - -
13.01.2020 10:00:00 8,2 3,2 26 14 S 1023,9 19
13.01.2020 09:00:00 - - - - - - -
13.01.2020 08:00:00 - - - - - - -
13.01.2020 07:00:00 7,0 2,9 29 16 S 1024,1 16
13.01.2020 06:00:00 - - - - - - -
13.01.2020 05:00:00 - - - - - - -
13.01.2020 04:00:00 - - - - - - -
13.01.2020 03:00:00 - - - - - - -
13.01.2020 02:00:00 - - - - - - -
13.01.2020 01:00:00 - - - - - - -
13.01.2020 00:00:00 - - - - - - -
12.01.2020 23:00:00 - - - - - - -
12.01.2020 22:00:00 - - - - - - -
12.01.2020 21:00:00 - - - - - - -
12.01.2020 20:00:00 - - - - - - -
12.01.2020 19:00:00 8,8 3,8 29 16 NW 1022,8 20
12.01.2020 18:00:00 - - - - - - -
12.01.2020 17:00:00 - - - - - - -
12.01.2020 16:00:00 10,4 5,6 16 9 NE 1022,4 19
12.01.2020 15:00:00 - - - - - - -
12.01.2020 14:00:00 - - - - - - -
12.01.2020 13:00:00 10,2 4,1 21 11 S 1022,7 20
12.01.2020 12:00:00 - - - - - - -

tt = temperature
td = dewpoint
ff = wind speed
dd = wind direction
ppp = reduced air pressure
vv = visibility

Next stations